,,PA_Meas_PMT16A,,PR_Meas_QMR101_102,,RH_Meas_QMH101,,SR_Meas_QMS101,,TA_Meas_QMH101,,GenWind,,GenWind,
time,status,PA,status,PR,status,RH,status,SR,status,TA,status,DirAvg,status,SpdAvg,
2011-02-03, 00:00:04,VALID,918.052,VALID,0,VALID,89.9716,VALID,0,VALID,20.0718,VALID,131,VALID,0.655078,
2011-02-03, 00:01:04,VALID,918.032,VALID,0,VALID,89.8343,VALID,0,VALID,20.0523,VALID,131,VALID,0.897656,
2011-02-03, 00:02:04,VALID,917.998,VALID,0,VALID,89.8191,VALID,0,VALID,20.0523,VALID,131,VALID,0.677344,
2011-02-03, 00:03:04,VALID,918.004,VALID,0,VALID,89.7124,VALID,0,VALID,20.0718,VALID,131,VALID,0.490234,
2011-02-03, 00:04:04,VALID,917.987,VALID,0,VALID,89.6209,VALID,0,VALID,20.0928,VALID,131,VALID,0.388281,
2011-02-03, 00:05:04,VALID,918.001,VALID,0,VALID,89.6895,VALID,0,VALID,20.0718,VALID,131,VALID,0.722266,
2011-02-03, 00:06:04,VALID,917.989,VALID,0,VALID,89.7124,VALID,0.107441,VALID,20.0928,VALID,131,VALID,0.551953,
2011-02-03, 00:07:04,VALID,917.957,VALID,0,VALID,89.8572,VALID,0,VALID,20.0523,VALID,131,VALID,0.284766,
2011-02-03, 00:08:04,VALID,917.96,VALID,0,VALID,89.9563,VALID,0,VALID,20.0718,VALID,131,VALID,0.604297,
2011-02-03, 00:09:04,VALID,917.944,VALID,0,VALID,89.9944,VALID,0.107441,VALID,20.0718,VALID,131,VALID,0.363281,
2011-02-03, 00:10:04,VALID,917.926,VALID,0,VALID,89.9029,VALID,0,VALID,20.0913,VALID,131,VALID,0,
2011-02-03, 00:11:04,VALID,917.947,VALID,0,VALID,89.9411,VALID,0,VALID,20.1123,VALID,131,VALID,0.0242187,
2011-02-03, 00:12:04,VALID,917.934,VALID,0,VALID,89.8191,VALID,0,VALID,20.0928,VALID,131,VALID,0.248828,
2011-02-03, 00:13:04,VALID,917.951,VALID,0,VALID,89.8801,VALID,0,VALID,20.0523,VALID,131,VALID,0.382031,
2011-02-03, 00:14:04,VALID,917.93,VALID,0,VALID,89.9411,VALID,0,VALID,20.0523,VALID,131,VALID,0.269531,
2011-02-03, 00:15:04,VALID,917.932,VALID,0,VALID,90.0097,VALID,0,VALID,20.0328,VALID,131,VALID,0.327344,
2011-02-03, 00:16:04,VALID,917.932,VALID,0,VALID,90.0859,VALID,0,VALID,20.0133,VALID,131,VALID,0.201953,
2011-02-03, 00:17:04,VALID,917.917,VALID,0,VALID,90.1164,VALID,0,VALID,20.0133,VALID,131,VALID,0.257422,
2011-02-03, 00:18:04,VALID,917.923,VALID,0,VALID,90.2308,VALID,0,VALID,20.0343,VALID,131,VALID,0.300781,
2011-02-03, 00:19:04,VALID,917.895,VALID,0,VALID,89.8343,VALID,0,VALID,20.0343,VALID,131,VALID,0.5625,
2011-02-03, 00:20:04,VALID,917.885,VALID,0,VALID,89.5523,VALID,0,VALID,20.0328,VALID,131,VALID,0.723437,
2011-02-03, 00:21:04,VALID,917.872,VALID,0,VALID,89.8115,VALID,0,VALID,20.0523,VALID,131,VALID,0.260156,
2011-02-03, 00:22:04,VALID,917.901,VALID,0,VALID,89.5523,VALID,0,VALID,20.0718,VALID,131,VALID,0.478125,
2011-02-03, 00:23:04,VALID,917.905,VALID,0,VALID,89.4379,VALID,0,VALID,20.0718,VALID,131,VALID,0.498437,
2011-02-03, 00:24:04,VALID,917.914,VALID,0,VALID,89.6285,VALID,0,VALID,20.0913,VALID,131,VALID,0.337891,
2011-02-03, 00:25:04,VALID,917.917,VALID,0,VALID,89.3007,VALID,0,VALID,20.0913,VALID,131,VALID,0.496484,
2011-02-03, 00:26:04,VALID,917.901,VALID,0,VALID,89.7657,VALID,0,VALID,20.1318,VALID,131,VALID,0.282422,
2011-02-03, 00:27:04,VALID,917.922,VALID,0,VALID,89.3769,VALID,0,VALID,20.0913,VALID,131,VALID,0.297656,
2011-02-03, 00:28:04,VALID,917.932,VALID,0,VALID,89.2854,VALID,0,VALID,20.0718,VALID,131,VALID,0.430469,
2011-02-03, 00:29:04,VALID,917.917,VALID,0,VALID,89.4837,VALID,0,VALID,20.0733,VALID,131,VALID,0.332031,
2011-02-03, 00:30:04,VALID,917.926,VALID,0,VALID,90.1088,VALID,0,VALID,20.0133,VALID,131,VALID,0.528516,
2011-02-03, 00:31:04,VALID,917.913,VALID,0,VALID,90.6272,VALID,0,VALID,19.8963,VALID,131,VALID,0.554688,
2011-02-03, 00:32:04,VALID,917.92,VALID,0,VALID,91.1303,VALID,0.107441,VALID,19.7988,VALID,131,VALID,0.580078,
2011-02-03, 00:33:04,VALID,917.923,VALID,0,VALID,91.5191,VALID,0.107441,VALID,19.6818,VALID,131,VALID,0.63125,
2011-02-03, 00:34:04,VALID,917.936,VALID,0,VALID,91.8698,VALID,0,VALID,19.6443,VALID,131,VALID,0.656641,
2011-02-03, 00:35:04,VALID,917.947,VALID,0,VALID,92.3119,VALID,0.107441,VALID,19.5648,VALID,131,VALID,0.54375,
2011-02-03, 00:36:04,VALID,917.951,VALID,0,VALID,92.5635,VALID,0,VALID,19.5063,VALID,131,VALID,0.928906,
2011-02-03, 00:37:04,VALID,917.922,VALID,0,VALID,92.8303,VALID,0,VALID,19.4868,VALID,131,VALID,0.65,
2011-02-03, 00:38:04,VALID,917.899,VALID,0,VALID,92.7922,VALID,0.107441,VALID,19.5078,VALID,131,VALID,0.463672,
2011-02-03, 00:39:04,VALID,917.872,VALID,0,VALID,92.8685,VALID,0,VALID,19.5078,VALID,131,VALID,0.414453,
2011-02-03, 00:40:04,VALID,917.846,VALID,0,VALID,92.8685,VALID,0.107441,VALID,19.4868,VALID,131,VALID,0.326562,
2011-02-03, 00:41:04,VALID,917.791,VALID,0,VALID,92.8456,VALID,0,VALID,19.4868,VALID,131,VALID,0.441406,
2011-02-03, 00:42:04,VALID,917.793,VALID,0,VALID,93.0057,VALID,0,VALID,19.4673,VALID,131,VALID,0.572656,
2011-02-03, 00:43:04,VALID,917.79,VALID,0,VALID,93.1048,VALID,0,VALID,19.4883,VALID,131,VALID,0.797266,
2011-02-03, 00:44:04,VALID,917.748,VALID,0,VALID,93.1048,VALID,0,VALID,19.4673,VALID,131,VALID,0.798437,
2011-02-03, 00:45:04,VALID,917.758,VALID,0,VALID,93.1734,VALID,0,VALID,19.4673,VALID,123,VALID,1.31172,
2011-02-03, 00:46:04,VALID,917.695,VALID,0,VALID,93.3259,VALID,0.107441,VALID,19.4868,VALID,80,VALID,1.3207,
2011-02-03, 00:47:04,VALID,917.693,VALID,0,VALID,93.2344,VALID,0,VALID,19.5078,VALID,80,VALID,0.950781,
2011-02-03, 00:48:04,VALID,917.683,VALID,0,VALID,93.0972,VALID,0.107441,VALID,19.4868,VALID,80,VALID,0.926562,
2011-02-03, 00:49:04,VALID,917.667,VALID,0,VALID,93.0972,VALID,0,VALID,19.4673,VALID,80,VALID,0.857813,
2011-02-03, 00:50:04,VALID,917.675,VALID,0,VALID,93.0895,VALID,0,VALID,19.4868,VALID,80,VALID,0.849609,
2011-02-03, 00:51:04,VALID,917.636,VALID,0,VALID,93.0362,VALID,0,VALID,19.4673,VALID,80,VALID,0.867578,
2011-02-03, 00:52:04,VALID,917.655,VALID,0,VALID,93.0743,VALID,0,VALID,19.4883,VALID,80,VALID,0.830078,
2011-02-03, 00:53:04,VALID,917.623,VALID,0,VALID,93.1429,VALID,0.107441,VALID,19.4673,VALID,157,VALID,0.743359,
2011-02-03, 00:54:04,VALID,917.639,VALID,0,VALID,93.2039,VALID,0,VALID,19.4478,VALID,157,VALID,0.939453,
2011-02-03, 00:55:04,VALID,917.683,VALID,0,VALID,93.2039,VALID,0,VALID,19.4673,VALID,157,VALID,0.66875,
2011-02-03, 00:56:04,VALID,917.651,VALID,0,VALID,93.6155,VALID,0,VALID,19.4673,VALID,157,VALID,0.927344,
2011-02-03, 00:57:04,VALID,917.645,VALID,0,VALID,93.8671,VALID,0,VALID,19.4673,VALID,157,VALID,0.348437,
2011-02-03, 00:58:04,VALID,917.65,VALID,0,VALID,94.0501,VALID,0,VALID,19.4688,VALID,157,VALID,0.40625,
2011-02-03, 00:59:04,VALID,917.665,VALID,0,VALID,94.1263,VALID,0.107441,VALID,19.4478,VALID,157,VALID,0.458203,
2011-02-03, 01:00:04,VALID,917.594,VALID,0,VALID,94.1873,VALID,0,VALID,19.4283,VALID,157,VALID,0.462891,
2011-02-03, 01:01:04,VALID,917.582,VALID,0,VALID,94.1797,VALID,0,VALID,19.4493,VALID,157,VALID,0.330078,
2011-02-03, 01:02:04,VALID,917.574,VALID,0,VALID,94.1721,VALID,0,VALID,19.4283,VALID,157,VALID,0.368359,
2011-02-03, 01:03:04,VALID,917.515,VALID,0,VALID,94.1416,VALID,0.107441,VALID,19.4088,VALID,157,VALID,0.50625,
2011-02-03, 01:04:04,VALID,917.477,VALID,0,VALID,94.1644,VALID,0.107441,VALID,19.3698,VALID,157,VALID,0.546875,
2011-02-03, 01:05:04,VALID,917.456,VALID,0,VALID,94.3855,VALID,0.107441,VALID,19.3518,VALID,157,VALID,0.760156,
2011-02-03, 01:06:04,VALID,917.456,VALID,0,VALID,94.4999,VALID,0.107441,VALID,19.3113,VALID,157,VALID,0.772656,
2011-02-03, 01:07:04,VALID,917.403,VALID,0,VALID,94.7133,VALID,0,VALID,19.2723,VALID,157,VALID,0.753906,
2011-02-03, 01:08:04,VALID,917.394,VALID,0,VALID,94.7133,VALID,0,VALID,19.2528,VALID,157,VALID,0.822266,
2011-02-03, 01:09:04,VALID,917.406,VALID,0,VALID,94.4999,VALID,0,VALID,19.2738,VALID,157,VALID,0.680078,
2011-02-03, 01:10:04,VALID,917.397,VALID,0,VALID,94.1416,VALID,0,VALID,19.3128,VALID,157,VALID,0.883203,
2011-02-03, 01:11:04,VALID,917.376,VALID,0,VALID,93.5317,VALID,0.107441,VALID,19.3713,VALID,157,VALID,0.889453,
2011-02-03, 01:12:04,VALID,917.396,VALID,0,VALID,93.0057,VALID,0,VALID,19.3908,VALID,157,VALID,0.815234,
2011-02-03, 01:13:04,VALID,917.374,VALID,0,VALID,92.8075,VALID,0,VALID,19.3893,VALID,157,VALID,0.674219,
2011-02-03, 01:14:04,VALID,917.358,VALID,0,VALID,92.7541,VALID,0,VALID,19.4103,VALID,94,VALID,0.832812,
2011-02-03, 01:15:04,VALID,917.32,VALID,0,VALID,92.6702,VALID,0.107441,VALID,19.4298,VALID,94,VALID,0.985156,
2011-02-03, 01:16:04,VALID,917.308,VALID,0,VALID,92.7007,VALID,0,VALID,19.3893,VALID,94,VALID,0.971094,
2011-02-03, 01:17:04,VALID,917.328,VALID,0,VALID,92.8303,VALID,0.107441,VALID,19.3713,VALID,94,VALID,0.965625,
2011-02-03, 01:18:04,VALID,917.273,VALID,0,VALID,92.9447,VALID,0.107441,VALID,19.3503,VALID,94,VALID,0.926562,
2011-02-03, 01:19:04,VALID,917.255,VALID,0,VALID,93.1048,VALID,0,VALID,19.3308,VALID,94,VALID,0.863281,
2011-02-03, 01:20:04,VALID,917.256,VALID,0,VALID,93.2039,VALID,0.107441,VALID,19.3503,VALID,94,VALID,0.731641,
2011-02-03, 01:21:04,VALID,917.222,VALID,0,VALID,93.2572,VALID,0,VALID,19.3503,VALID,94,VALID,0.802344,
2011-02-03, 01:22:04,VALID,917.224,VALID,0,VALID,93.2801,VALID,0,VALID,19.3308,VALID,94,VALID,0.466016,
2011-02-03, 01:23:04,VALID,917.201,VALID,0,VALID,93.3487,VALID,0,VALID,19.3518,VALID,94,VALID,0.446094,
2011-02-03, 01:24:04,VALID,917.208,VALID,0,VALID,93.5317,VALID,0,VALID,19.3503,VALID,94,VALID,0.921094,
2011-02-03, 01:25:04,VALID,917.192,VALID,0,VALID,93.6689,VALID,0,VALID,19.3503,VALID,94,VALID,0.414844,
2011-02-03, 01:26:04,VALID,917.182,VALID,0,VALID,93.7223,VALID,0.107441,VALID,19.3698,VALID,94,VALID,0.567969,
2011-02-03, 01:27:04,VALID,917.212,VALID,0,VALID,93.8443,VALID,0.107441,VALID,19.3698,VALID,160,VALID,0.503906,
2011-02-03, 01:28:04,VALID,917.192,VALID,0,VALID,93.8824,VALID,0,VALID,19.3503,VALID,160,VALID,0.909375,
2011-02-03, 01:29:04,VALID,917.152,VALID,0,VALID,93.9205,VALID,0,VALID,19.3308,VALID,124,VALID,1.0125,
2011-02-03, 01:30:04,VALID,917.102,VALID,0,VALID,93.7833,VALID,0,VALID,19.3113,VALID,142,VALID,1.30938,
2011-02-03, 01:31:04,VALID,917.1,VALID,0,VALID,93.1734,VALID,0,VALID,19.3698,VALID,141,VALID,0.963281,
2011-02-03, 01:32:04,VALID,917.053,VALID,0,VALID,92.4034,VALID,0.107441,VALID,19.4478,VALID,143,VALID,1.00898,
2011-02-03, 01:33:04,VALID,917.015,VALID,0,VALID,91.824,VALID,0.107441,VALID,19.5663,VALID,143,VALID,0.831641,
2011-02-03, 01:34:04,VALID,917.024,VALID,0,VALID,91.2675,VALID,0.107441,VALID,19.6248,VALID,143,VALID,0.599609,
2011-02-03, 01:35:04,VALID,916.997,VALID,0,VALID,90.8711,VALID,0.107441,VALID,19.6638,VALID,143,VALID,0.626562,
2011-02-03, 01:36:04,VALID,916.993,VALID,0,VALID,90.4747,VALID,0,VALID,19.7028,VALID,143,VALID,0.679688,
2011-02-03, 01:37:04,VALID,916.992,VALID,0,VALID,90.2994,VALID,0,VALID,19.7223,VALID,143,VALID,0.929688,
2011-02-03, 01:38:04,VALID,916.964,VALID,0,VALID,90.2917,VALID,0,VALID,19.6818,VALID,143,VALID,0.489453,
2011-02-03, 01:39:04,VALID,916.968,VALID,0,VALID,89.8572,VALID,0,VALID,19.7013,VALID,143,VALID,1.06094,
2011-02-03, 01:40:04,VALID,916.976,VALID,0,VALID,89.7505,VALID,0,VALID,19.7613,VALID,143,VALID,0.825,
2011-02-03, 01:41:04,VALID,916.946,VALID,0,VALID,89.6056,VALID,0,VALID,19.7403,VALID,143,VALID,0.996484,
2011-02-03, 01:42:04,VALID,916.98,VALID,0,VALID,89.8191,VALID,0.107441,VALID,19.7598,VALID,143,VALID,0.687109,
2011-02-03, 01:43:04,VALID,916.978,VALID,0,VALID,89.9334,VALID,0,VALID,19.7418,VALID,143,VALID,0.929297,
2011-02-03, 01:44:04,VALID,916.978,VALID,0,VALID,89.7124,VALID,0.107441,VALID,19.7418,VALID,143,VALID,0.906641,
2011-02-03, 01:45:04,VALID,916.968,VALID,0,VALID,89.4455,VALID,0,VALID,19.7403,VALID,143,VALID,1.00664,
2011-02-03, 01:46:04,VALID,916.971,VALID,0,VALID,89.1101,VALID,0,VALID,19.8198,VALID,143,VALID,1.2957,
2011-02-03, 01:47:04,VALID,916.953,VALID,0,VALID,88.8433,VALID,0,VALID,19.8378,VALID,132,VALID,1.05234,
2011-02-03, 01:48:04,VALID,916.971,VALID,0,VALID,88.6527,VALID,0,VALID,19.8783,VALID,144,VALID,1.1793,
2011-02-03, 01:49:04,VALID,916.959,VALID,0,VALID,88.6222,VALID,0,VALID,19.8963,VALID,134,VALID,0.952344,
2011-02-03, 01:50:04,VALID,916.926,VALID,0,VALID,88.4545,VALID,0.107441,VALID,19.9353,VALID,138,VALID,0.567969,
2011-02-03, 01:51:04,VALID,916.91,VALID,0,VALID,88.2105,VALID,0.107441,VALID,19.9758,VALID,138,VALID,0.881641,
2011-02-03, 01:52:04,VALID,916.865,VALID,0,VALID,88.4545,VALID,0,VALID,19.9548,VALID,138,VALID,0.791016,
2011-02-03, 01:53:04,VALID,916.84,VALID,0,VALID,88.1877,VALID,0,VALID,19.9353,VALID,138,VALID,1.14453,
2011-02-03, 01:54:04,VALID,916.817,VALID,0,VALID,88.0505,VALID,0,VALID,19.9758,VALID,138,VALID,1.24844,
2011-02-03, 01:55:04,VALID,916.781,VALID,0,VALID,88.2792,VALID,0,VALID,19.9953,VALID,138,VALID,0.955469,
2011-02-03, 01:56:04,VALID,916.779,VALID,0,VALID,87.8141,VALID,0,VALID,19.9743,VALID,138,VALID,1.07187,
2011-02-03, 01:57:04,VALID,916.768,VALID,0,VALID,87.8446,VALID,0,VALID,20.0538,VALID,138,VALID,0.666016,
2011-02-03, 01:58:04,VALID,916.742,VALID,0,VALID,87.654,VALID,0.107441,VALID,20.0928,VALID,138,VALID,0.971094,
2011-02-03, 01:59:04,VALID,916.763,VALID,0,VALID,87.7226,VALID,0,VALID,20.0928,VALID,138,VALID,0.725,
2011-02-03, 02:00:04,VALID,916.741,VALID,0,VALID,87.7303,VALID,0,VALID,20.0928,VALID,138,VALID,0.886719,
2011-02-03, 02:01:04,VALID,916.749,VALID,0,VALID,88.1038,VALID,0.107441,VALID,20.0718,VALID,138,VALID,0.532422,
2011-02-03, 02:02:04,VALID,916.732,VALID,0,VALID,88.2944,VALID,0,VALID,20.0523,VALID,138,VALID,0.803516,
2011-02-03, 02:03:04,VALID,916.755,VALID,0,VALID,88.1419,VALID,0.107441,VALID,20.0133,VALID,138,VALID,0.819531,
2011-02-03, 02:04:04,VALID,916.743,VALID,0,VALID,88.241,VALID,0,VALID,20.0538,VALID,138,VALID,0.639453,
2011-02-03, 02:05:04,VALID,916.748,VALID,0,VALID,88.6451,VALID,0,VALID,20.0148,VALID,137,VALID,0.883984,
2011-02-03, 02:06:04,VALID,916.725,VALID,0,VALID,88.6146,VALID,0.107441,VALID,19.9953,VALID,137,VALID,0.888281,
2011-02-03, 02:07:04,VALID,916.699,VALID,0,VALID,88.7366,VALID,0.107441,VALID,19.9743,VALID,121,VALID,0.845312,
2011-02-03, 02:08:04,VALID,916.685,VALID,0,VALID,88.1877,VALID,0.107441,VALID,19.9953,VALID,151,VALID,1.15977,
2011-02-03, 02:09:04,VALID,916.71,VALID,0,VALID,88.424,VALID,0.107441,VALID,20.0148,VALID,158,VALID,0.529297,
2011-02-03, 02:10:04,VALID,916.695,VALID,0,VALID,88.1953,VALID,0.107441,VALID,20.0133,VALID,157,VALID,0.830078,
2011-02-03, 02:11:04,VALID,916.692,VALID,0,VALID,88.0962,VALID,0,VALID,20.0538,VALID,124,VALID,0.604688,
2011-02-03, 02:12:04,VALID,916.65,VALID,0,VALID,87.7684,VALID,0,VALID,20.0328,VALID,124,VALID,0.597266,
2011-02-03, 02:13:04,VALID,916.644,VALID,0,VALID,87.7531,VALID,0,VALID,20.0538,VALID,124,VALID,0.794141,
2011-02-03, 02:14:04,VALID,916.632,VALID,0,VALID,87.5549,VALID,0.107441,VALID,20.0523,VALID,124,VALID,0.479688,
2011-02-03, 02:15:04,VALID,916.622,VALID,0,VALID,87.898,VALID,0.107441,VALID,20.0928,VALID,124,VALID,0.837891,
2011-02-03, 02:16:04,VALID,916.597,VALID,0,VALID,87.9361,VALID,0,VALID,20.0928,VALID,124,VALID,0.176172,
2011-02-03, 02:17:04,VALID,916.613,VALID,0,VALID,88.2792,VALID,0,VALID,20.0733,VALID,124,VALID,0.416406,
2011-02-03, 02:18:04,VALID,916.592,VALID,0,VALID,88.4545,VALID,0,VALID,20.0343,VALID,124,VALID,0.398438,
2011-02-03, 02:19:04,VALID,916.579,VALID,0,VALID,88.3325,VALID,0,VALID,20.0343,VALID,124,VALID,0.449219,
2011-02-03, 02:20:04,VALID,916.588,VALID,0,VALID,88.3554,VALID,0.107441,VALID,19.9938,VALID,124,VALID,0.463672,
2011-02-03, 02:21:04,VALID,916.608,VALID,0,VALID,88.3706,VALID,0,VALID,19.9548,VALID,124,VALID,0.684766,
2011-02-03, 02:22:04,VALID,916.585,VALID,0,VALID,88.2182,VALID,0.107441,VALID,19.9953,VALID,124,VALID,0.638672,
2011-02-03, 02:23:04,VALID,916.603,VALID,0,VALID,88.4774,VALID,0.107441,VALID,19.9953,VALID,124,VALID,0.439453,
2011-02-03, 02:24:04,VALID,916.612,VALID,0,VALID,88.3554,VALID,0.107441,VALID,19.9548,VALID,124,VALID,0.791406,
2011-02-03, 02:25:04,VALID,916.609,VALID,0,VALID,88.3783,VALID,0,VALID,19.9743,VALID,124,VALID,0.429688,
2011-02-03, 02:26:04,VALID,916.605,VALID,0,VALID,88.2715,VALID,0,VALID,19.9938,VALID,138,VALID,0.635156,
2011-02-03, 02:27:04,VALID,916.581,VALID,0,VALID,88.1343,VALID,0,VALID,19.9938,VALID,138,VALID,0.741016,
2011-02-03, 02:28:04,VALID,916.553,VALID,0,VALID,88.0962,VALID,0,VALID,20.0148,VALID,137,VALID,0.678516,
2011-02-03, 02:29:04,VALID,916.534,VALID,0,VALID,88.0886,VALID,0,VALID,20.0343,VALID,137,VALID,0.809375,
2011-02-03, 02:30:04,VALID,916.488,VALID,0,VALID,87.9285,VALID,0,VALID,20.0328,VALID,119,VALID,0.816016,
2011-02-03, 02:31:04,VALID,916.475,VALID,0,VALID,88.0352,VALID,0,VALID,20.0328,VALID,119,VALID,0.620703,
2011-02-03, 02:32:04,VALID,916.476,VALID,0,VALID,88.0581,VALID,0.107441,VALID,20.0328,VALID,119,VALID,0.660156,
2011-02-03, 02:33:04,VALID,916.427,VALID,0,VALID,88.0123,VALID,0,VALID,20.0328,VALID,119,VALID,0.782031,
2011-02-03, 02:34:04,VALID,916.39,VALID,0,VALID,87.6769,VALID,0,VALID,20.0343,VALID,119,VALID,0.839844,
2011-02-03, 02:35:04,VALID,916.356,VALID,0,VALID,87.6617,VALID,0,VALID,20.0538,VALID,119,VALID,0.808594,
2011-02-03, 02:36:04,VALID,916.38,VALID,0,VALID,87.8827,VALID,0.107441,VALID,20.0523,VALID,119,VALID,0.503516,
2011-02-03, 02:37:04,VALID,916.357,VALID,0,VALID,87.8599,VALID,0,VALID,20.0133,VALID,119,VALID,0.753516,
2011-02-03, 02:38:04,VALID,916.334,VALID,0,VALID,87.7989,VALID,0,VALID,19.9938,VALID,119,VALID,1.04336,
2011-02-03, 02:39:04,VALID,916.328,VALID,0,VALID,88.0809,VALID,0,VALID,19.9953,VALID,119,VALID,0.832422,
2011-02-03, 02:40:04,VALID,916.348,VALID,0,VALID,88.3401,VALID,0,VALID,19.9758,VALID,119,VALID,0.694531,
2011-02-03, 02:41:04,VALID,916.323,VALID,0,VALID,88.2334,VALID,0,VALID,19.9563,VALID,119,VALID,0.790625,
2011-02-03, 02:42:04,VALID,916.335,VALID,0,VALID,88.3478,VALID,0,VALID,19.9563,VALID,119,VALID,0.683203,
2011-02-03, 02:43:04,VALID,916.281,VALID,0,VALID,88.1877,VALID,0,VALID,19.9563,VALID,119,VALID,0.544141,
2011-02-03, 02:44:04,VALID,916.322,VALID,0,VALID,88.668,VALID,0,VALID,19.9368,VALID,119,VALID,0.470703,
2011-02-03, 02:45:04,VALID,916.298,VALID,0,VALID,88.4088,VALID,0,VALID,19.8963,VALID,119,VALID,0.705469,
2011-02-03, 02:46:04,VALID,916.292,VALID,0,VALID,87.9437,VALID,0,VALID,19.9158,VALID,119,VALID,0.898047,
2011-02-03, 02:47:04,VALID,916.242,VALID,0,VALID,87.8446,VALID,0,VALID,19.9548,VALID,119,VALID,0.830469,
2011-02-03, 02:48:04,VALID,916.256,VALID,0,VALID,87.8065,VALID,0,VALID,19.9758,VALID,120,VALID,0.689844,
2011-02-03, 02:49:04,VALID,916.21,VALID,0,VALID,87.8446,VALID,0.107441,VALID,19.9743,VALID,120,VALID,0.669531,
2011-02-03, 02:50:04,VALID,916.194,VALID,0,VALID,87.7303,VALID,0.107441,VALID,19.9548,VALID,133,VALID,1.00195,
2011-02-03, 02:51:04,VALID,916.18,VALID,0,VALID,87.6159,VALID,0,VALID,19.9548,VALID,146,VALID,0.724609,
2011-02-03, 02:52:04,VALID,916.141,VALID,0,VALID,87.4863,VALID,0,VALID,20.0148,VALID,146,VALID,0.574609,
2011-02-03, 02:53:04,VALID,916.172,VALID,0,VALID,87.6922,VALID,0.107441,VALID,19.9743,VALID,146,VALID,0.504297,
2011-02-03, 02:54:04,VALID,916.17,VALID,0,VALID,88.0962,VALID,0,VALID,19.9758,VALID,146,VALID,0.505469,
2011-02-03, 02:55:04,VALID,916.198,VALID,0,VALID,88.4011,VALID,0,VALID,19.9173,VALID,146,VALID,0.40625,
2011-02-03, 02:56:04,VALID,916.205,VALID,0,VALID,88.5307,VALID,0.107441,VALID,19.8573,VALID,146,VALID,0.423438,
2011-02-03, 02:57:04,VALID,916.214,VALID,0,VALID,88.5765,VALID,0,VALID,19.8783,VALID,146,VALID,0.249219,
2011-02-03, 02:58:04,VALID,916.19,VALID,0,VALID,88.3478,VALID,0,VALID,19.8573,VALID,146,VALID,0.787109,
2011-02-03, 02:59:04,VALID,916.203,VALID,0,VALID,88.1877,VALID,0,VALID,19.8768,VALID,146,VALID,0.308203,
2011-02-03, 03:00:04,VALID,916.202,VALID,0,VALID,88.2944,VALID,0,VALID,19.8978,VALID,146,VALID,0.280859,
2011-02-03, 03:01:04,VALID,916.183,VALID,0,VALID,88.4011,VALID,0,VALID,19.8963,VALID,146,VALID,0.414453,
2011-02-03, 03:02:04,VALID,916.174,VALID,0,VALID,88.668,VALID,0.107441,VALID,19.8573,VALID,146,VALID,0.295312,
2011-02-03, 03:03:04,VALID,916.177,VALID,0,VALID,88.7518,VALID,0.107441,VALID,19.8378,VALID,146,VALID,0.513672,
2011-02-03, 03:04:04,VALID,916.16,VALID,0,VALID,88.8738,VALID,0,VALID,19.8198,VALID,146,VALID,0.599219,
2011-02-03, 03:05:04,VALID,916.154,VALID,0,VALID,88.8052,VALID,0,VALID,19.8003,VALID,146,VALID,0.786719,
2011-02-03, 03:06:04,VALID,916.142,VALID,0,VALID,88.7899,VALID,0,VALID,19.8198,VALID,146,VALID,0.582422,
2011-02-03, 03:07:04,VALID,916.089,VALID,0,VALID,88.4697,VALID,0,VALID,19.8198,VALID,139,VALID,1.05352,
2011-02-03, 03:08:04,VALID,916.129,VALID,0,VALID,88.2029,VALID,0,VALID,19.8783,VALID,136,VALID,0.951563,
2011-02-03, 03:09:04,VALID,916.148,VALID,0,VALID,88.2563,VALID,0,VALID,19.8963,VALID,136,VALID,0.789063,
2011-02-03, 03:10:04,VALID,916.135,VALID,0,VALID,88.2487,VALID,0,VALID,19.8573,VALID,136,VALID,0.549219,
2011-02-03, 03:11:04,VALID,916.147,VALID,0,VALID,88.424,VALID,0.107441,VALID,19.8768,VALID,136,VALID,0.493359,
2011-02-03, 03:12:04,VALID,916.112,VALID,0,VALID,88.5612,VALID,0.107441,VALID,19.8573,VALID,136,VALID,0.534375,
2011-02-03, 03:13:04,VALID,916.152,VALID,0,VALID,89.0186,VALID,0,VALID,19.8573,VALID,136,VALID,0.225,
2011-02-03, 03:14:04,VALID,916.139,VALID,0,VALID,88.8585,VALID,0,VALID,19.8393,VALID,136,VALID,0.284375,
2011-02-03, 03:15:04,VALID,916.138,VALID,0,VALID,88.8738,VALID,0,VALID,19.7793,VALID,136,VALID,0.234375,
2011-02-03, 03:16:04,VALID,916.124,VALID,0,VALID,88.8357,VALID,0,VALID,19.7793,VALID,136,VALID,0.457031,
2011-02-03, 03:17:04,VALID,916.135,VALID,0,VALID,88.4697,VALID,0,VALID,19.8393,VALID,136,VALID,0.479688,
2011-02-03, 03:18:04,VALID,916.101,VALID,0,VALID,88.1572,VALID,0,VALID,19.9173,VALID,136,VALID,0.651953,
2011-02-03, 03:19:04,VALID,916.084,VALID,0,VALID,87.9437,VALID,0,VALID,19.9368,VALID,136,VALID,0.604688,
2011-02-03, 03:20:04,VALID,916.048,VALID,0,VALID,87.7531,VALID,0,VALID,19.9953,VALID,136,VALID,0.538672,
2011-02-03, 03:21:04,VALID,916.039,VALID,0,VALID,87.4939,VALID,0,VALID,20.0343,VALID,136,VALID,0.698438,
2011-02-03, 03:22:04,VALID,916.028,VALID,0,VALID,87.7226,VALID,0.107441,VALID,20.0733,VALID,136,VALID,0.406641,
2011-02-03, 03:23:04,VALID,916.009,VALID,0,VALID,87.4482,VALID,0.107441,VALID,20.0718,VALID,136,VALID,0.679297,
2011-02-03, 03:24:04,VALID,915.985,VALID,0,VALID,87.2119,VALID,0,VALID,20.1318,VALID,136,VALID,0.528125,
2011-02-03, 03:25:04,VALID,915.984,VALID,0,VALID,87.0518,VALID,0,VALID,20.1318,VALID,136,VALID,0.701563,
2011-02-03, 03:26:04,VALID,915.945,VALID,0,VALID,87.0594,VALID,0,VALID,20.1318,VALID,136,VALID,0.769141,
2011-02-03, 03:27:04,VALID,915.949,VALID,0,VALID,87.3948,VALID,0,VALID,20.1077,VALID,136,VALID,0.292969,
2011-02-03, 03:28:04,VALID,915.943,VALID,0,VALID,87.3034,VALID,0,VALID,20.1303,VALID,136,VALID,0.620703,
2011-02-03, 03:29:04,VALID,915.934,VALID,0,VALID,87.2347,VALID,0,VALID,20.1108,VALID,136,VALID,0.735156,
2011-02-03, 03:30:04,VALID,915.946,VALID,0,VALID,87.4711,VALID,0.107441,VALID,20.1513,VALID,136,VALID,0.6375,
2011-02-03, 03:31:04,VALID,915.928,VALID,0,VALID,87.9361,VALID,0,VALID,20.1303,VALID,136,VALID,0.259766,
2011-02-03, 03:32:04,VALID,915.888,VALID,0,VALID,87.2652,VALID,0,VALID,20.1303,VALID,136,VALID,0.611719,
2011-02-03, 03:33:04,VALID,915.92,VALID,0,VALID,87.2195,VALID,0.107441,VALID,20.1498,VALID,136,VALID,0.484766,
2011-02-03, 03:34:04,VALID,915.893,VALID,0,VALID,87.3415,VALID,0,VALID,20.1903,VALID,136,VALID,0.432422,
2011-02-03, 03:35:04,VALID,915.906,VALID,0,VALID,87.0899,VALID,0,VALID,20.2098,VALID,136,VALID,0.423438,
2011-02-03, 03:36:04,VALID,915.921,VALID,0,VALID,87.0975,VALID,0,VALID,20.1903,VALID,136,VALID,0.423438,
2011-02-03, 03:37:04,VALID,915.922,VALID,0,VALID,87.25,VALID,0,VALID,20.2098,VALID,135,VALID,0.887891,
2011-02-03, 03:38:04,VALID,915.902,VALID,0,VALID,86.9374,VALID,0,VALID,20.1903,VALID,126,VALID,1.05625,
2011-02-03, 03:39:04,VALID,915.886,VALID,0,VALID,86.9679,VALID,0,VALID,20.1708,VALID,126,VALID,0.879687,
2011-02-03, 03:40:04,VALID,915.885,VALID,0,VALID,87.3491,VALID,0,VALID,20.1903,VALID,126,VALID,0.238281,